This is the latest recevied weather packets stored in our database for station/object WW5JC. If no packets are shown the sender has not sent any weather packets the latest 10 day(s).
| Time | Temp. | Humidity | Pressure | Rain* | Wind** | Luminosity | Snow |
|---|---|---|---|---|---|---|---|
| 1788034579 | 37.22° C | 35% | 1017.7 hPa | 0 mm | - | 573 W/m² | - |
| 1788034275 | 37.22° C | 36% | 1017.8 hPa | 0 mm | - | 584 W/m² | - |
| 1788033974 | 36.67° C | 37% | 1018 hPa | 0 mm | - | 618 W/m² | - |
| 1788033664 | 36.11° C | 40% | 1017.9 hPa | 0 mm | - | 178 W/m² | - |
| 1788033363 | 37.22° C | 39% | 1017.8 hPa | 0 mm | - | 613 W/m² | - |
| 1788033058 | 36.67° C | 39% | 1018.3 hPa | 0 mm | - | 621 W/m² | - |
| 1788032758 | 36.67° C | 39% | 1018.3 hPa | 0 mm | - | 641 W/m² | - |
| 1788032453 | 36.67° C | 39% | 1018.2 hPa | 0 mm | - | 640 W/m² | - |
| 1788032149 | 36.11° C | 41% | 1018.4 hPa | 0 mm | - | 651 W/m² | - |
| 1788031845 | 36.11° C | 40% | 1018.4 hPa | 0 mm | - | 639 W/m² | - |
| 1788031538 | 36.11° C | 41% | 1018.6 hPa | 0 mm | - | 649 W/m² | - |
| 1788031232 | 36.11° C | 43% | 1018.7 hPa | 0 mm | - | 655 W/m² | - |
| 1788030927 | 36.11° C | 44% | 1018.7 hPa | 0 mm | - | 649 W/m² | - |
| 1788030625 | 36.11° C | 44% | 1018.7 hPa | 0 mm | - | 652 W/m² | - |
| 1788030320 | 36.11° C | 44% | 1018.5 hPa | 0 mm | - | 655 W/m² | - |
| 1788030015 | 36.11° C | 45% | 1018.8 hPa | 0 mm | - | 673 W/m² | - |
| 1788029710 | 36.11° C | 43% | 1018.8 hPa | 0 mm | - | 673 W/m² | - |
| 1788029406 | 35.56° C | 42% | 1018.9 hPa | 0 mm | - | 672 W/m² | - |
| 1788029104 | 36.11° C | 44% | 1019 hPa | 0 mm | - | 596 W/m² | - |
| 1788028799 | 35.56° C | 44% | 1019.1 hPa | 0 mm | - | 670 W/m² | - |
| 1788028494 | 35° C | 47% | 1019 hPa | 0 mm | - | 666 W/m² | - |
| 1788028189 | 35° C | 47% | 1019 hPa | 0 mm | - | 668 W/m² | - |
| 1788027889 | 36.11° C | 46% | 1019.2 hPa | 0 mm | - | 671 W/m² | - |
| 1788027584 | 35.56° C | 49% | 1019.3 hPa | 0 mm | - | 661 W/m² | - |
| 1788027278 | 35° C | 49% | 1019.4 hPa | 0 mm | - | 670 W/m² | - |
* Rain latest hour (hover to see other rain measurements)
** Current wind speed in m/s (hover to see current wind gust speed)